User: anonymous   Login
Location: Ahausen
(50.4985°N, 8.2722°E)
Time: 11:38:15
(UTC+00:00)
Language:

PRISM - Orbit

View from above orbital plane
View from above orbital plane
View from above satellite
View from above satellite

Ground track
Ground track

The orbit data is extracted from the following two-line orbital elements,

1 33493U 09002B   22178.95231958  .00002460  00000-0  20329-3 0  9996
2 33493  98.2250 166.1207 0016164 135.3042 224.9486 14.99882113730550
Epoch (UTC): 27 June 2022 22:51:20
Eccentricity: 0.0016164
inclination: 98.2250°
perigee height: 556 km
apogee height: 578 km
right ascension of ascending node: 166.1207°
argument of perigee: 135.3042°
revolutions per day: 14.99882113
mean anomaly at epoch: 224.9486°
orbit number at epoch: 73055

The dashed part of the orbit path shows where the satellite is in the earth's shadow,  

DLR